Date String (YYYY-MM-DD hh:mm:ss) UTC,Instrument flags,Ambient pressure (hPa),Sample flow (lpm),Bypass flow (lpm),Sample temperature (°C),Ambient temperature (°C),ASC tube jacket temperature (°C),LED temperature (°C),Box temperature (°C),Sample RH (%),Span deviation,Mass concentration (μg/m³),Mass concentration (μg/m³),Mass concentration (μg/m³)
DateTimeUTC,F1_M11,P_M11,Q1_M11,Q2_M11,T1_M11,T2_M11,T3_M11,T4_M11,T5_M11,U1_M11,ZSPAN_M11,X0_M11,X2_M11,X1_M11
2022-10-31 12:00:00,,0824.3,5.00,0.00,25.7,24.0,00.0,34.6,27.5,10.1,0000.0,0004.22,0002.61,0002.14
2022-10-31 12:01:00,,0824.2,5.01,0.00,25.7,24.0,00.0,34.6,27.6,10.1,0000.0,0004.26,0002.61,0002.13
2022-10-31 12:02:00,,0824.2,5.01,0.00,25.7,24.0,00.0,34.6,27.5,10.1,0000.0,0004.74,0002.62,0002.14
2022-10-31 12:03:00,,0824.2,4.98,0.00,25.7,24.0,00.0,34.6,27.4,10.1,0000.0,0005.34,0002.63,0002.15
2022-10-31 12:04:00,,0824.3,5.00,0.00,25.7,24.0,00.0,34.6,27.4,10.0,0000.0,0005.28,0002.62,0002.16
2022-10-31 12:05:00,,0824.2,5.00,0.00,25.7,24.0,00.0,34.6,27.5,10.0,0000.0,0006.15,0002.62,0002.16
2022-10-31 12:06:00,,0824.3,5.00,0.00,25.7,24.0,00.0,34.6,27.5,10.0,0000.0,0006.77,0002.63,0002.14
2022-10-31 12:07:00,,0824.2,5.00,0.00,25.7,24.0,00.0,34.6,27.5,10.1,0000.0,0007.90,0002.62,0002.13
2022-10-31 12:08:00,,0824.2,4.99,0.00,25.7,24.0,00.0,34.6,27.5,10.1,0000.0,0007.94,0002.61,0002.12
2022-10-31 12:09:00,,0824.2,5.01,0.00,25.7,24.0,00.0,34.5,27.5,10.1,0000.0,0008.01,0002.65,0002.14
2022-10-31 12:10:00,,0824.2,5.01,0.00,25.7,24.0,00.0,34.5,27.5,10.1,0000.0,0007.95,0002.63,0002.13
2022-10-31 12:11:00,,0824.2,4.98,0.00,25.7,24.0,00.0,34.5,27.5,10.1,0000.0,0007.93,0002.62,0002.13
2022-10-31 12:12:00,,0824.2,5.01,0.00,25.6,24.0,00.0,34.5,27.4,10.1,0000.0,0008.09,0002.67,0002.14
2022-10-31 12:13:00,,0824.3,5.01,0.00,25.6,24.0,00.0,34.5,27.4,10.1,0000.0,0007.93,0002.64,0002.13
2022-10-31 12:14:00,,0824.2,4.97,0.00,25.6,24.0,00.0,34.5,27.4,10.1,0000.0,0008.12,0002.61,0002.12
2022-10-31 12:15:00,,0824.2,5.01,0.00,25.6,24.0,00.0,34.5,27.4,10.0,0000.0,0008.07,0002.55,0002.12
2022-10-31 12:16:00,,0824.1,4.98,0.00,25.6,24.0,00.0,34.5,27.4,10.1,0000.0,0007.39,0002.54,0002.12
2022-10-31 12:17:00,,0824.1,5.01,0.00,25.6,24.0,00.0,34.5,27.4,10.1,0000.0,0006.90,0002.54,0002.13
2022-10-31 12:18:00,,0824.1,4.98,0.00,25.6,24.0,00.0,34.5,27.4,10.0,0000.0,0005.36,0002.54,0002.15
2022-10-31 12:19:00,,0824.1,5.02,0.00,25.6,24.0,00.0,34.5,27.5,10.0,0000.0,0005.25,0002.54,0002.14
2022-10-31 12:20:00,,0824.1,5.01,0.00,25.6,24.0,00.0,34.5,27.4,09.9,0000.0,0005.18,0002.52,0002.13
2022-10-31 12:21:00,,0824.1,4.98,0.00,25.6,24.0,00.0,34.5,27.4,09.9,0000.0,0005.26,0002.56,0002.15
2022-10-31 12:22:00,,0824.1,5.01,0.00,25.6,24.0,00.0,34.5,27.4,09.9,0000.0,0005.31,0002.56,0002.13
2022-10-31 12:23:00,,0824.1,4.98,0.00,25.6,24.0,00.0,34.5,27.4,10.0,0000.0,0004.96,0002.49,0002.12
2022-10-31 12:24:00,,0824.1,5.00,0.00,25.6,24.0,00.0,34.5,27.4,09.9,0000.0,0004.62,0002.49,0002.12
2022-10-31 12:25:00,,0824.1,5.01,0.00,25.6,23.9,00.0,34.5,27.3,09.9,0000.0,0003.69,0002.49,0002.11
2022-10-31 12:26:00,,0824.1,5.00,0.00,25.6,23.9,00.0,34.5,27.4,09.9,0000.0,0003.29,0002.47,0002.11
2022-10-31 12:27:00,,0824.1,5.00,0.00,25.6,23.9,00.0,34.5,27.4,09.9,0000.0,0003.54,0002.48,0002.10
2022-10-31 12:28:00,,0824.1,5.01,0.00,25.6,23.9,00.0,34.5,27.3,09.9,0000.0,0003.63,0002.49,0002.09
2022-10-31 12:29:00,,0824.1,4.98,0.00,25.6,23.9,00.0,34.5,27.3,09.9,0000.0,0003.67,0002.49,0002.08
2022-10-31 12:30:00,,0824.1,5.00,0.00,25.6,23.9,00.0,34.5,27.4,09.8,0000.0,0003.59,0002.47,0002.07
2022-10-31 12:31:00,,0824.1,5.01,0.00,25.6,23.9,00.0,34.5,27.3,09.8,0000.0,0003.60,0002.47,0002.07
2022-10-31 12:32:00,,0824.1,5.01,0.00,25.6,23.9,00.0,34.5,27.4,09.8,0000.0,0003.60,0002.47,0002.08
2022-10-31 12:33:00,,0824.1,4.98,0.00,25.6,23.9,00.0,34.5,27.4,09.9,0000.0,0003.48,0002.44,0002.07
2022-10-31 12:34:00,,0824.1,5.01,0.00,25.6,23.9,00.0,34.5,27.4,09.9,0000.0,0003.47,0002.44,0002.07
2022-10-31 12:35:00,,0824.1,4.98,0.00,25.6,23.9,00.0,34.5,27.4,09.9,0000.0,0003.43,0002.43,0002.06
2022-10-31 12:36:00,,0824.1,5.01,0.00,25.6,23.9,00.0,34.5,27.3,09.9,0000.0,0003.41,0002.41,0002.06
2022-10-31 12:37:00,,0824.1,5.01,0.00,25.5,23.9,00.0,34.4,27.3,09.9,0000.0,0003.46,0002.43,0002.07
2022-10-31 12:38:00,,0824.1,4.98,0.00,25.5,23.9,00.0,34.4,27.3,09.9,0000.0,0003.29,0002.42,0002.08
2022-10-31 12:39:00,,0824.1,5.02,0.00,25.5,23.9,00.0,34.4,27.3,09.9,0000.0,0003.10,0002.37,0002.08
2022-10-31 12:40:00,,0824.1,5.01,0.00,25.5,23.9,00.0,34.4,27.4,09.9,0000.0,0003.10,0002.35,0002.09
2022-10-31 12:41:00,,0824.1,4.98,0.00,25.5,23.9,00.0,34.4,27.4,09.9,0000.0,0003.15,0002.36,0002.10
2022-10-31 12:42:00,,0824.1,5.01,0.00,25.5,23.9,00.0,34.4,27.3,09.9,0000.0,0003.25,0002.37,0002.10
2022-10-31 12:43:00,,0824.1,5.00,0.00,25.5,23.9,00.0,34.4,27.3,09.8,0000.0,0003.20,0002.34,0002.09
2022-10-31 12:44:00,,0824.1,5.00,0.00,25.5,23.9,00.0,34.4,27.4,09.7,0000.0,0003.17,0002.32,0002.08
2022-10-31 12:45:00,,0824.1,5.01,0.00,25.5,23.8,00.0,34.4,27.3,09.7,0000.0,0003.29,0002.36,0002.08
2022-10-31 12:46:00,,0824.1,4.99,0.00,25.5,23.8,00.0,34.4,27.2,09.7,0000.0,0003.41,0002.40,0002.08
2022-10-31 12:47:00,,0824.1,5.01,0.00,25.5,23.8,00.0,34.4,27.3,09.8,0000.0,0003.42,0002.42,0002.08
2022-10-31 12:48:00,,0824.1,4.98,0.00,25.5,23.8,00.0,34.4,27.3,09.8,0000.0,0003.36,0002.40,0002.08
2022-10-31 12:49:00,,0824.1,5.00,0.00,25.5,23.8,00.0,34.4,27.4,09.9,0000.0,0003.28,0002.38,0002.09
2022-10-31 12:50:00,,0824.1,5.00,0.00,25.5,23.9,00.0,34.4,27.4,10.0,0000.0,0003.37,0002.43,0002.09
2022-10-31 12:51:00,,0824.1,4.98,0.00,25.5,23.9,00.0,34.4,27.4,10.0,0000.0,0003.29,0002.43,0002.09
2022-10-31 12:52:00,,0824.1,5.00,0.00,25.5,23.9,00.0,34.4,27.4,10.0,0000.0,0003.39,0002.51,0002.11
2022-10-31 12:53:00,,0824.1,5.01,0.00,25.5,23.8,00.0,34.4,27.4,10.1,0000.0,0003.37,0002.53,0002.13
2022-10-31 12:54:00,,0824.1,5.01,0.00,25.5,23.8,00.0,34.4,27.4,10.1,0000.0,0003.35,0002.54,0002.13
2022-10-31 12:55:00,,0824.1,5.01,0.00,25.5,23.9,00.0,34.4,27.4,10.2,0000.0,0003.38,0002.56,0002.15
2022-10-31 12:56:00,,0824.1,4.99,0.00,25.5,23.9,00.0,34.4,27.3,10.2,0000.0,0003.32,0002.55,0002.17
2022-10-31 12:57:00,,0824.1,5.01,0.00,25.5,23.9,00.0,34.3,27.3,10.2,0000.0,0003.29,0002.56,0002.18
2022-10-31 12:58:00,,0824.1,4.98,0.00,25.5,23.9,00.0,34.3,27.3,10.2,0000.0,0003.71,0002.58,0002.20
2022-10-31 12:59:00,,0824.2,5.02,0.00,25.5,23.9,00.0,34.3,27.3,10.2,0000.0,0003.92,0002.60,0002.19
